Time,TemperatureF,DewpointF,PressureIn,WindDirection,WindDirectionDegrees,WindSpeedMPH,WindSpeedGustMPH,Humidity,HourlyPrecipIn,Conditions,Clouds,dailyrainin,SolarRadiationWatts/m^2,SoftwareType,DateUTC
2013-03-22 00:03:00,72.0,65.0,30.04,East,101,2.0,7.0,79,0.00,,,0.00,0.000000,,2013-03-22 10:03:00,
2013-03-22 00:12:00,72.0,65.0,30.04,East,101,2.0,7.0,79,0.00,,,0.00,0.000000,,2013-03-22 10:12:00,
2013-03-22 00:42:00,71.0,64.0,30.04,ESE,118,4.0,6.0,79,0.00,,,0.00,0.000000,,2013-03-22 10:42:00,
2013-03-22 00:52:00,71.0,64.0,30.04,ESE,118,4.0,6.0,79,0.00,,,0.00,0.000000,,2013-03-22 10:52:00,
2013-03-22 01:02:00,71.0,64.0,30.04,ESE,118,4.0,6.0,79,0.00,,,0.00,0.000000,,2013-03-22 11:02:00,
2013-03-22 01:12:00,71.0,64.0,30.04,ESE,118,4.0,6.0,79,0.00,,,0.00,0.000000,,2013-03-22 11:12:00,
2013-03-22 01:42:00,71.0,65.0,30.04,ESE,113,5.0,6.0,80,0.00,,,0.00,0.000000,,2013-03-22 11:42:00,
2013-03-22 01:52:00,71.0,65.0,30.04,ESE,113,5.0,6.0,80,0.00,,,0.00,0.000000,,2013-03-22 11:52:00,
2013-03-22 02:02:00,71.0,65.0,30.04,ESE,113,5.0,6.0,80,0.00,,,0.00,0.000000,,2013-03-22 12:02:00,
2013-03-22 02:12:00,71.0,65.0,30.04,ESE,113,5.0,6.0,80,0.00,,,0.00,0.000000,,2013-03-22 12:12:00,
2013-03-22 02:42:00,72.0,63.0,30.00,East,95,6.0,8.0,74,0.00,,,0.00,0.000000,,2013-03-22 12:42:00,
2013-03-22 02:52:00,72.0,63.0,30.00,East,95,6.0,8.0,74,0.00,,,0.00,0.000000,,2013-03-22 12:52:00,
2013-03-22 03:02:00,72.0,63.0,30.00,East,95,6.0,8.0,74,0.00,,,0.00,0.000000,,2013-03-22 13:02:00,
2013-03-22 03:12:00,72.0,63.0,30.00,East,95,6.0,8.0,74,0.00,,,0.00,0.000000,,2013-03-22 13:12:00,
2013-03-22 03:42:00,70.0,62.0,29.97,ESE,117,4.0,6.0,76,0.00,,,0.00,0.000000,,2013-03-22 13:42:00,
2013-03-22 03:52:00,70.0,62.0,29.97,ESE,117,4.0,6.0,76,0.00,,,0.00,0.000000,,2013-03-22 13:52:00,
2013-03-22 04:02:00,70.0,62.0,29.97,ESE,117,4.0,6.0,76,0.00,,,0.00,0.000000,,2013-03-22 14:02:00,
2013-03-22 04:12:00,70.0,62.0,29.97,ESE,117,4.0,6.0,76,0.00,,,0.00,0.000000,,2013-03-22 14:12:00,
2013-03-22 04:43:00,71.0,62.0,29.96,ESE,112,5.0,8.0,74,0.00,,,0.00,0.000000,,2013-03-22 14:43:00,
2013-03-22 04:52:00,71.0,62.0,29.96,ESE,112,5.0,8.0,74,0.00,,,0.00,0.000000,,2013-03-22 14:52:00,
2013-03-22 05:02:00,71.0,62.0,29.96,ESE,112,5.0,8.0,74,0.00,,,0.00,0.000000,,2013-03-22 15:02:00,
2013-03-22 05:11:00,71.0,62.0,29.96,ESE,112,5.0,8.0,74,0.00,,,0.00,0.000000,,2013-03-22 15:11:00,
2013-03-22 05:43:00,71.0,63.0,29.97,ESE,116,5.0,7.0,75,0.00,,,0.00,0.000000,,2013-03-22 15:43:00,
2013-03-22 05:53:00,71.0,63.0,29.97,ESE,116,5.0,7.0,75,0.00,,,0.00,0.000000,,2013-03-22 15:53:00,
2013-03-22 06:02:00,71.0,63.0,29.97,ESE,116,5.0,7.0,75,0.00,,,0.00,0.000000,,2013-03-22 16:02:00,
2013-03-22 06:13:00,71.0,63.0,29.97,ESE,116,5.0,7.0,75,0.00,,,0.00,0.000000,,2013-03-22 16:13:00,
2013-03-22 06:42:00,71.0,62.0,29.98,ENE,67,4.0,8.0,72,0.00,,,0.00,0.000000,,2013-03-22 16:42:00,
2013-03-22 06:52:00,71.0,62.0,29.98,ENE,67,4.0,8.0,72,0.00,,,0.00,0.000000,,2013-03-22 16:52:00,
2013-03-22 07:03:00,71.0,62.0,29.98,ENE,67,4.0,8.0,72,0.00,,,0.00,0.000000,,2013-03-22 17:03:00,
2013-03-22 07:12:00,71.0,62.0,29.98,ENE,67,4.0,8.0,72,0.00,,,0.00,0.000000,,2013-03-22 17:12:00,
2013-03-22 07:42:00,73.0,64.0,30.01,NE,45,4.0,7.0,74,0.00,,,0.00,36.000000,,2013-03-22 17:42:00,
2013-03-22 07:53:00,73.0,64.0,30.01,NE,45,4.0,7.0,74,0.00,,,0.00,36.000000,,2013-03-22 17:53:00,
2013-03-22 08:02:00,73.0,64.0,30.01,NE,45,4.0,7.0,74,0.00,,,0.00,36.000000,,2013-03-22 18:02:00,
2013-03-22 08:12:00,73.0,64.0,30.01,NE,45,4.0,7.0,74,0.00,,,0.00,36.000000,,2013-03-22 18:12:00,
2013-03-22 08:42:00,76.0,67.0,30.02,NE,34,2.0,6.0,74,0.00,,,0.00,144.000000,,2013-03-22 18:42:00,
2013-03-22 08:52:00,76.0,67.0,30.02,NE,34,2.0,6.0,74,0.00,,,0.00,144.000000,,2013-03-22 18:52:00,
2013-03-22 09:02:00,76.0,67.0,30.02,NE,34,2.0,6.0,74,0.00,,,0.00,144.000000,,2013-03-22 19:02:00,
2013-03-22 09:12:00,76.0,67.0,30.02,NE,34,2.0,6.0,74,0.00,,,0.00,144.000000,,2013-03-22 19:12:00,
2013-03-22 09:43:00,79.0,68.0,30.01,NW,322,7.0,10.0,68,0.00,,,0.00,251.000000,,2013-03-22 19:43:00,
2013-03-22 09:52:00,79.0,68.0,30.01,NW,322,7.0,10.0,68,0.00,,,0.00,251.000000,,2013-03-22 19:52:00,
2013-03-22 10:02:00,79.0,68.0,30.01,NW,322,7.0,10.0,68,0.00,,,0.00,251.000000,,2013-03-22 20:02:00,
2013-03-22 10:12:00,79.0,68.0,30.01,NW,322,7.0,10.0,68,0.00,,,0.00,251.000000,,2013-03-22 20:12:00,
2013-03-22 10:43:00,80.0,67.0,30.00,NW,309,11.0,15.0,65,0.00,,,0.00,562.000000,,2013-03-22 20:43:00,
2013-03-22 10:52:00,80.0,67.0,30.00,NW,309,11.0,15.0,65,0.00,,,0.00,562.000000,,2013-03-22 20:52:00,
2013-03-22 11:02:00,80.0,67.0,30.00,NW,309,11.0,15.0,65,0.00,,,0.00,562.000000,,2013-03-22 21:02:00,
2013-03-22 11:12:00,80.0,67.0,30.00,NW,309,11.0,15.0,65,0.00,,,0.00,562.000000,,2013-03-22 21:12:00,
2013-03-22 11:43:00,80.0,66.0,30.01,NW,304,9.0,15.0,63,0.00,,,0.00,490.000000,,2013-03-22 21:43:00,
2013-03-22 11:53:00,80.0,66.0,30.01,NW,304,9.0,15.0,63,0.00,,,0.00,490.000000,,2013-03-22 21:53:00,
2013-03-22 12:02:00,80.0,66.0,30.01,NW,304,9.0,15.0,63,0.00,,,0.00,490.000000,,2013-03-22 22:02:00,
2013-03-22 12:12:00,80.0,66.0,30.01,NW,304,9.0,15.0,63,0.00,,,0.00,490.000000,,2013-03-22 22:12:00,
2013-03-22 12:43:00,79.0,68.0,29.98,West,278,10.0,14.0,69,0.00,,,0.00,552.000000,,2013-03-22 22:43:00,
2013-03-22 12:53:00,79.0,68.0,29.98,West,278,10.0,14.0,69,0.00,,,0.00,552.000000,,2013-03-22 22:53:00,
2013-03-22 13:02:00,79.0,68.0,29.98,West,278,10.0,14.0,69,0.00,,,0.00,552.000000,,2013-03-22 23:02:00,
2013-03-22 13:12:00,79.0,68.0,29.98,West,278,10.0,14.0,69,0.00,,,0.00,552.000000,,2013-03-22 23:12:00,
2013-03-22 13:42:00,81.0,67.0,29.96,NW,307,9.0,14.0,62,0.00,,,0.00,547.000000,,2013-03-22 23:42:00,
2013-03-22 13:52:00,81.0,67.0,29.96,NW,307,9.0,14.0,62,0.00,,,0.00,547.000000,,2013-03-22 23:52:00,
2013-03-22 14:02:00,81.0,67.0,29.96,NW,307,9.0,14.0,62,0.00,,,0.00,547.000000,,2013-03-23 00:02:00,
2013-03-22 14:12:00,81.0,67.0,29.96,NW,307,9.0,14.0,62,0.00,,,0.00,547.000000,,2013-03-23 00:12:00,
2013-03-22 14:42:00,82.0,65.0,29.93,NNW,329,9.0,16.0,57,0.00,,,0.00,663.000000,,2013-03-23 00:42:00,
2013-03-22 14:52:00,82.0,65.0,29.93,NNW,329,9.0,16.0,57,0.00,,,0.00,663.000000,,2013-03-23 00:52:00,
2013-03-22 15:03:00,82.0,65.0,29.93,NNW,329,9.0,16.0,57,0.00,,,0.00,663.000000,,2013-03-23 01:03:00,
2013-03-22 15:11:00,82.0,65.0,29.93,NNW,329,9.0,16.0,57,0.00,,,0.00,663.000000,,2013-03-23 01:11:00,
2013-03-22 15:43:00,80.0,68.0,29.92,WNW,283,12.0,17.0,67,0.00,,,0.00,613.000000,,2013-03-23 01:43:00,
2013-03-22 15:52:00,80.0,68.0,29.92,WNW,283,12.0,17.0,67,0.00,,,0.00,613.000000,,2013-03-23 01:52:00,
2013-03-22 16:02:00,80.0,68.0,29.92,WNW,283,12.0,17.0,67,0.00,,,0.00,613.000000,,2013-03-23 02:02:00,
2013-03-22 16:12:00,80.0,68.0,29.92,WNW,283,12.0,17.0,67,0.00,,,0.00,613.000000,,2013-03-23 02:12:00,
2013-03-22 16:42:00,81.0,67.0,29.92,WNW,301,10.0,16.0,62,0.00,,,0.00,560.000000,,2013-03-23 02:42:00,
2013-03-22 16:52:00,81.0,67.0,29.92,WNW,301,10.0,16.0,62,0.00,,,0.00,560.000000,,2013-03-23 02:52:00,
2013-03-22 17:02:00,81.0,67.0,29.92,WNW,301,10.0,16.0,62,0.00,,,0.00,560.000000,,2013-03-23 03:02:00,
2013-03-22 17:11:00,81.0,67.0,29.92,WNW,301,10.0,16.0,62,0.00,,,0.00,560.000000,,2013-03-23 03:11:00,
2013-03-22 17:43:00,80.0,67.0,29.92,WNW,294,10.0,15.0,65,0.00,,,0.00,406.000000,,2013-03-23 03:43:00,
2013-03-22 17:53:00,80.0,67.0,29.92,WNW,294,10.0,15.0,65,0.00,,,0.00,406.000000,,2013-03-23 03:53:00,
2013-03-22 18:02:00,80.0,67.0,29.92,WNW,294,10.0,15.0,65,0.00,,,0.00,406.000000,,2013-03-23 04:02:00,
2013-03-22 18:12:00,80.0,67.0,29.92,WNW,294,10.0,15.0,65,0.00,,,0.00,406.000000,,2013-03-23 04:12:00,
2013-03-22 18:43:00,77.0,67.0,29.93,NW,321,9.0,16.0,71,0.00,,,0.00,97.000000,,2013-03-23 04:43:00,
2013-03-22 18:53:00,77.0,67.0,29.93,NW,321,9.0,16.0,71,0.00,,,0.00,97.000000,,2013-03-23 04:53:00,
2013-03-22 19:02:00,77.0,67.0,29.93,NW,321,9.0,16.0,71,0.00,,,0.00,97.000000,,2013-03-23 05:02:00,
2013-03-22 19:12:00,77.0,67.0,29.93,NW,321,9.0,16.0,71,0.00,,,0.00,97.000000,,2013-03-23 05:12:00,
2013-03-22 19:42:00,76.0,66.0,29.95,NW,309,9.0,12.0,72,0.00,,,0.00,2.000000,,2013-03-23 05:42:00,
2013-03-22 19:52:00,76.0,66.0,29.95,NW,309,9.0,12.0,72,0.00,,,0.00,2.000000,,2013-03-23 05:52:00,
2013-03-22 20:02:00,76.0,66.0,29.95,NW,309,9.0,12.0,72,0.00,,,0.00,2.000000,,2013-03-23 06:02:00,
2013-03-22 20:12:00,76.0,66.0,29.95,NW,309,9.0,12.0,72,0.00,,,0.00,2.000000,,2013-03-23 06:12:00,
2013-03-22 20:42:00,76.0,68.0,29.96,NNW,331,9.0,14.0,76,0.00,,,0.00,0.000000,,2013-03-23 06:42:00,
2013-03-22 20:52:00,76.0,68.0,29.96,NNW,331,9.0,14.0,76,0.00,,,0.00,0.000000,,2013-03-23 06:52:00,
2013-03-22 21:02:00,76.0,68.0,29.96,NNW,331,9.0,14.0,76,0.00,,,0.00,0.000000,,2013-03-23 07:02:00,
2013-03-22 21:12:00,76.0,68.0,29.96,NNW,331,9.0,14.0,76,0.00,,,0.00,0.000000,,2013-03-23 07:12:00,
2013-03-22 21:42:00,75.0,67.0,29.96,North,354,8.0,14.0,77,0.00,,,0.00,0.000000,,2013-03-23 07:42:00,
2013-03-22 21:52:00,75.0,67.0,29.96,North,354,8.0,14.0,77,0.00,,,0.00,0.000000,,2013-03-23 07:52:00,
2013-03-22 22:02:00,75.0,67.0,29.96,North,354,8.0,14.0,77,0.00,,,0.00,0.000000,,2013-03-23 08:02:00,
2013-03-22 22:12:00,75.0,67.0,29.96,North,354,8.0,14.0,77,0.00,,,0.00,0.000000,,2013-03-23 08:12:00,
2013-03-22 22:42:00,74.0,66.0,29.97,NNW,348,2.0,11.0,76,0.00,,,0.00,0.000000,,2013-03-23 08:42:00,
2013-03-22 22:52:00,74.0,66.0,29.97,NNW,348,2.0,11.0,76,0.00,,,0.00,0.000000,,2013-03-23 08:52:00,
2013-03-22 23:02:00,74.0,66.0,29.97,NNW,348,2.0,11.0,76,0.00,,,0.00,0.000000,,2013-03-23 09:02:00,
2013-03-22 23:12:00,74.0,66.0,29.97,NNW,348,2.0,11.0,76,0.00,,,0.00,0.000000,,2013-03-23 09:12:00,
2013-03-22 23:43:00,74.0,67.0,29.96,North,3,1.0,3.0,78,0.00,,,0.00,0.000000,,2013-03-23 09:43:00,
2013-03-22 23:53:00,74.0,67.0,29.96,North,3,1.0,3.0,78,0.00,,,0.00,0.000000,,2013-03-23 09:53:00,